Weather History for Lac la Martre, NT

Change the Weather History Date:

Friday, October 25, 2013

  Actual Average Record
Temperature  
Mean Temperature 30 °F -  
Max Temperature 33 °F - - ()
Min Temperature 27 °F - - ()
Degree Days  
Heating Degree Days 35    
Moisture  
Dew Point 29 °F    
Average Humidity 95    
Maximum Humidity 99    
Minimum Humidity 87    
Precipitation  
Precipitation 0.00 in - - ()
Sea Level Pressure  
Sea Level Pressure 30.12 in    
Wind  
Wind Speed 5 mph ()    
Max Wind Speed 8 mph    
Max Gust Speed -    
T = Trace of Precipitation, MM = Missing Value Source: Averaged Metar Reports

Daily Weather History Graph

Daily Weather History Graph

Search for Another Location

Airport:

Trip Planner

Search our weather history database for the weather conditions in past years. The results will help you decide how hot, cold, wet, or windy it might be!

Date:

Astronomy

Oct. 25, 2013 Rise Set
Actual Time 9:06 AM MDT 5:58 PM MDT
Civil Twilight 8:17 AM MDT 6:47 PM MDT
Nautical Twilight 7:23 AM MDT 7:41 PM MDT
Astronomical Twilight 6:30 AM MDT 8:34 PM MDT
Moon 10:52 PM MDT (10/25) 3:23 PM MDT (10/25)
Length of Visible Light 10h 29m
Length of Day
8h 51m
Waning Gibbous, 62% of the Moon is Illuminated
Oct 25
Waning Gibbous
Oct 26
Last Quarter
Nov 3
New
Nov 9
First Quarter
Nov 17
Full

Hourly Weather History & Observations

Time (MDT) Temp. Windchill Dew Point Humidity Pressure Visibility Wind Dir Wind Speed Gust Speed Precip Events Conditions
12:00 AM 33 °F - 32 °F 94% 30.03 in - NNW 8.1 mph - -  
12:00 AM 33.1 °F 26.1 °F 32.0 °F 96% 30.03 in - NNW 8.1 mph - N/A   Unknown
1:00 AM 32.9 °F 25.9 °F 31.3 °F 94% 30.06 in - NNW 8.1 mph - N/A   Unknown
2:00 AM 31.5 °F 24.2 °F 31.1 °F 99% 30.08 in - NNW 8.1 mph - N/A   Unknown
3:00 AM 31.5 °F 24.9 °F 30.0 °F 94% 30.10 in - North 6.9 mph - N/A   Unknown
4:00 AM 31.3 °F 25.6 °F 29.7 °F 94% 30.12 in - NNW 5.8 mph - N/A   Unknown
5:00 AM 31.5 °F 26.8 °F 29.8 °F 94% 30.14 in - North 4.6 mph - N/A   Unknown
6:00 AM 31 °F - 29 °F 90% 30.14 in - NNW 3.5 mph - -  
6:00 AM 30.7 °F 27.3 °F 29.1 °F 94% 30.14 in - NNW 3.5 mph - N/A   Unknown
7:00 AM 30.7 °F - 29.8 °F 96% 30.16 in - NW 2.3 mph - N/A   Unknown
8:00 AM 30.0 °F - 29.1 °F 96% 30.16 in - North 1.2 mph - N/A   Unknown
9:00 AM 27.9 °F 19.8 °F 27.7 °F 99% 30.16 in - WSW 8.1 mph - N/A   Unknown
10:00 AM 28.0 °F 21.7 °F 27.5 °F 98% 30.17 in - WSW 5.8 mph - N/A   Unknown
11:00 AM 28.2 °F 22.0 °F 27.7 °F 98% 30.17 in - SW 5.8 mph - N/A   Unknown
12:00 PM 28 °F - 28 °F 98% 30.17 in - WSW 4.6 mph - -  
12:00 PM 27.9 °F 22.6 °F 27.7 °F 99% 30.17 in - WSW 4.6 mph - N/A   Unknown
1:00 PM 30.2 °F 26.7 °F 27.3 °F 89% 30.15 in - SSE 3.5 mph - N/A   Unknown
2:00 PM 30.0 °F 25.2 °F 27.1 °F 89% 30.15 in - South 4.6 mph - N/A   Unknown
3:00 PM 30.2 °F 25.4 °F 27.1 °F 88% 30.12 in - South 4.6 mph - N/A   Unknown
4:00 PM 32.0 °F 27.5 °F 28.4 °F 87% 30.12 in - ESE 4.6 mph - N/A   Unknown
5:00 PM 28.8 °F 25.0 °F 27.3 °F 94% 30.12 in - SSE 3.5 mph - N/A   Unknown
6:00 PM 28 °F - 27 °F 96% 30.12 in - SE 1.2 mph - -  
6:00 PM 28.4 °F - 27.3 °F 96% 30.12 in - SE 1.2 mph - N/A   Unknown
7:00 PM 27.9 °F 24.0 °F 27.1 °F 97% 30.11 in - ENE 3.5 mph - N/A   Unknown
8:00 PM 27.5 °F 23.6 °F 27.1 °F 99% 30.09 in - ENE 3.5 mph - N/A   Unknown
9:00 PM 27.9 °F 22.6 °F 27.7 °F 99% 30.10 in - ENE 4.6 mph - N/A   Unknown
10:00 PM 28.0 °F 24.2 °F 27.7 °F 99% 30.10 in - East 3.5 mph - N/A   Unknown
11:00 PM 28.2 °F 22.0 °F 28.0 °F 99% 30.09 in - ENE 5.8 mph - N/A   Unknown